Time,TemperatureF,DewpointF,PressureIn,WindDirection,WindDirectionDegrees,WindSpeedMPH,WindSpeedGustMPH,Humidity,HourlyPrecipIn,Conditions,Clouds,dailyrainin,SoftwareType,DateUTC
2013-06-26 00:00:00,88.0,51.8,29.00,SSW,195,6.0,12.1,29,0.00,,,0.00,WSDL version 420,2013-06-26 05:00:00,
2013-06-26 00:06:00,87.8,51.6,29.00,SSW,199,4.2,11.0,29,0.00,,,0.00,WSDL version 420,2013-06-26 05:06:00,
2013-06-26 00:11:00,87.6,51.5,29.00,SSW,199,5.0,10.7,29,0.00,,,0.00,WSDL version 420,2013-06-26 05:11:00,
2013-06-26 00:16:00,87.4,51.3,29.00,SSW,203,4.7,10.7,29,0.00,,,0.00,WSDL version 420,2013-06-26 05:16:00,
2013-06-26 00:21:00,87.3,51.2,29.00,SSE,168,4.5,9.8,29,0.00,,,0.00,WSDL version 420,2013-06-26 05:21:00,
2013-06-26 00:26:00,87.1,51.0,29.00,SSW,197,5.9,10.5,29,0.00,,,0.00,WSDL version 420,2013-06-26 05:26:00,
2013-06-26 00:31:00,87.1,51.6,29.00,SSW,193,5.5,10.5,30,0.00,,,0.00,WSDL version 420,2013-06-26 05:31:00,
2013-06-26 00:36:00,86.9,51.8,29.00,South,180,7.5,10.5,30,0.00,,,0.00,WSDL version 420,2013-06-26 05:36:00,
2013-06-26 00:41:00,86.9,51.7,29.00,South,177,4.8,10.5,30,-99.99,,,-99.99,WSDL version 420,2013-06-26 05:41:00,
2013-06-26 00:46:00,86.5,51.5,29.00,South,189,3.6,9.6,30,0.00,,,0.00,WSDL version 420,2013-06-26 05:46:00,
2013-06-26 00:51:00,86.2,51.4,29.00,SSW,196,4.1,10.1,31,0.00,,,0.00,WSDL version 420,2013-06-26 05:51:00,
2013-06-26 00:56:00,86.0,51.9,29.00,South,184,5.0,12.1,31,0.00,,,0.00,WSDL version 420,2013-06-26 05:56:00,
2013-06-26 01:01:00,85.8,52.6,29.00,SSE,162,4.2,12.1,32,0.00,,,0.00,WSDL version 420,2013-06-26 06:01:00,
2013-06-26 01:06:00,85.6,52.7,28.97,SSE,161,5.1,11.0,33,0.00,,,0.00,WSDL version 420,2013-06-26 06:06:00,
2013-06-26 01:12:00,85.3,53.4,28.97,South,188,7.5,11.0,34,0.00,,,0.00,WSDL version 420,2013-06-26 06:12:00,
2013-06-26 01:17:00,85.1,53.6,28.97,SSE,162,4.1,9.8,34,0.00,,,0.00,WSDL version 420,2013-06-26 06:17:00,
2013-06-26 01:22:00,84.9,54.2,28.97,SSE,149,3.3,9.8,35,0.00,,,0.00,WSDL version 420,2013-06-26 06:22:00,
2013-06-26 01:28:00,84.7,55.0,28.97,South,183,4.9,9.8,37,0.00,,,0.00,WSDL version 420,2013-06-26 06:28:00,
2013-06-26 01:34:00,84.5,55.7,28.97,SSW,194,4.7,10.1,38,0.00,,,0.00,WSDL version 420,2013-06-26 06:34:00,
2013-06-26 01:39:00,84.2,56.4,28.97,South,186,6.8,10.5,39,0.00,,,0.00,WSDL version 420,2013-06-26 06:39:00,
2013-06-26 01:44:00,84.0,56.4,28.97,South,171,3.9,10.5,39,0.00,,,0.00,WSDL version 420,2013-06-26 06:44:00,
2013-06-26 01:50:00,83.7,56.8,28.97,SW,225,6.6,12.1,40,0.00,,,0.00,WSDL version 420,2013-06-26 06:50:00,
2013-06-26 01:55:00,83.5,57.0,28.97,SSW,199,5.5,12.1,41,0.00,,,0.00,WSDL version 420,2013-06-26 06:55:00,
2013-06-26 02:00:00,83.3,57.2,28.97,SSW,199,3.9,10.7,41,0.00,,,0.00,WSDL version 420,2013-06-26 07:00:00,
2013-06-26 02:06:00,83.1,57.7,28.94,South,188,6.4,8.5,42,0.00,,,0.00,WSDL version 420,2013-06-26 07:06:00,
2013-06-26 02:11:00,83.0,57.6,28.94,South,173,4.9,10.7,42,0.00,,,0.00,WSDL version 420,2013-06-26 07:11:00,
2013-06-26 02:16:00,82.8,57.8,28.94,SSW,209,6.3,10.7,43,0.00,,,0.00,WSDL version 420,2013-06-26 07:16:00,
2013-06-26 02:21:00,82.8,58.0,28.97,SSW,203,7.8,12.1,43,0.00,,,0.00,WSDL version 420,2013-06-26 07:21:00,
2013-06-26 02:26:00,82.5,57.9,28.97,South,191,4.1,12.1,44,-99.99,,,-99.99,WSDL version 420,2013-06-26 07:26:00,
2013-06-26 02:31:00,82.4,58.3,28.97,South,191,7.3,12.1,44,0.00,,,0.00,WSDL version 420,2013-06-26 07:31:00,
2013-06-26 02:36:00,82.2,58.8,28.97,SSW,208,7.0,12.1,45,0.00,,,0.00,WSDL version 420,2013-06-26 07:36:00,
2013-06-26 02:41:00,82.0,59.0,28.97,South,188,4.4,11.9,46,0.00,,,0.00,WSDL version 420,2013-06-26 07:41:00,
2013-06-26 02:46:00,81.7,59.3,28.97,South,177,3.4,8.7,47,0.00,,,0.00,WSDL version 420,2013-06-26 07:46:00,
2013-06-26 02:51:00,81.6,59.6,28.97,SSE,165,4.8,9.6,48,0.00,,,0.00,WSDL version 420,2013-06-26 07:51:00,
2013-06-26 02:56:00,81.4,59.9,28.97,SSW,194,4.4,9.8,48,0.00,,,0.00,WSDL version 420,2013-06-26 07:56:00,
2013-06-26 03:01:00,81.3,60.4,28.97,South,188,3.9,10.1,49,0.00,,,0.00,WSDL version 420,2013-06-26 08:01:00,
2013-06-26 03:06:00,81.2,60.2,28.97,South,186,5.2,10.1,49,0.00,,,0.00,WSDL version 420,2013-06-26 08:06:00,
2013-06-26 03:11:00,81.1,60.7,28.97,SW,215,5.2,10.3,50,0.00,,,0.00,WSDL version 420,2013-06-26 08:11:00,
2013-06-26 03:16:00,81.0,60.6,28.97,SSW,196,5.1,10.7,50,0.00,,,0.00,WSDL version 420,2013-06-26 08:16:00,
2013-06-26 03:21:00,80.9,60.9,28.97,South,186,4.8,10.7,51,-99.99,,,-99.99,WSDL version 420,2013-06-26 08:21:00,
2013-06-26 03:26:00,80.8,61.0,28.97,SSW,206,6.4,17.2,51,0.00,,,0.00,WSDL version 420,2013-06-26 08:26:00,
2013-06-26 03:32:00,80.7,60.9,28.97,SSW,194,5.8,17.2,51,-99.99,,,-99.99,WSDL version 420,2013-06-26 08:32:00,
2013-06-26 03:37:00,80.6,61.0,28.97,SSW,203,6.3,9.8,52,0.00,,,0.00,WSDL version 420,2013-06-26 08:37:00,
2013-06-26 03:42:00,80.5,61.2,28.97,SSW,200,5.4,9.8,52,0.00,,,0.00,WSDL version 420,2013-06-26 08:42:00,
2013-06-26 03:47:00,80.4,61.5,28.97,South,188,5.5,11.9,53,0.00,,,0.00,WSDL version 420,2013-06-26 08:47:00,
2013-06-26 03:52:00,80.2,61.6,28.97,SSW,203,4.7,11.9,53,0.00,,,0.00,WSDL version 420,2013-06-26 08:52:00,
2013-06-26 03:57:00,80.2,61.6,28.97,SSW,199,4.7,10.5,53,0.00,,,0.00,WSDL version 420,2013-06-26 08:57:00,
2013-06-26 04:02:00,80.1,61.5,28.97,South,169,4.7,10.7,54,0.00,,,0.00,WSDL version 420,2013-06-26 09:02:00,
2013-06-26 04:07:00,80.1,61.9,28.94,South,190,4.5,10.7,54,0.00,,,0.00,WSDL version 420,2013-06-26 09:07:00,
2013-06-26 04:12:00,79.9,61.8,28.94,SSW,206,3.6,8.1,54,0.00,,,0.00,WSDL version 420,2013-06-26 09:12:00,
2013-06-26 04:17:00,79.6,61.8,28.94,SSE,163,3.1,8.1,55,0.00,,,0.00,WSDL version 420,2013-06-26 09:17:00,
2013-06-26 04:22:00,79.4,62.0,28.97,South,170,3.2,7.6,56,0.00,,,0.00,WSDL version 420,2013-06-26 09:22:00,
2013-06-26 04:27:00,79.2,62.0,28.97,SSE,167,4.5,8.7,56,0.00,,,0.00,WSDL version 420,2013-06-26 09:27:00,
2013-06-26 04:32:00,79.1,62.1,28.97,South,177,3.7,8.7,56,0.00,,,0.00,WSDL version 420,2013-06-26 09:32:00,
2013-06-26 04:37:00,79.0,62.3,28.97,SSE,165,5.6,8.7,56,0.00,,,0.00,WSDL version 420,2013-06-26 09:37:00,
2013-06-26 04:42:00,78.8,62.3,28.97,South,180,3.6,7.2,57,0.00,,,0.00,WSDL version 420,2013-06-26 09:42:00,
2013-06-26 04:47:00,78.6,62.3,28.97,South,190,2.6,6.3,58,0.00,,,0.00,WSDL version 420,2013-06-26 09:47:00,
2013-06-26 04:52:00,78.4,62.9,28.97,South,184,4.0,6.3,59,0.00,,,0.00,WSDL version 420,2013-06-26 09:52:00,
2013-06-26 04:57:00,78.2,62.9,28.97,South,175,3.5,10.1,60,0.00,,,0.00,WSDL version 420,2013-06-26 09:57:00,
2013-06-26 05:02:00,78.1,62.9,28.97,SSW,193,2.6,10.1,60,0.00,,,0.00,WSDL version 420,2013-06-26 10:02:00,
2013-06-26 05:05:00,77.9,62.8,29.00,SSE,167,3.7,7.4,60,0.00,,,0.00,WSDL version 420,2013-06-26 10:05:00,
2013-06-26 05:10:00,77.8,62.8,29.00,South,173,3.4,7.4,60,0.00,,,0.00,WSDL version 420,2013-06-26 10:10:00,
2013-06-26 05:16:00,77.5,62.6,29.00,South,180,2.3,6.3,60,0.00,,,0.00,WSDL version 420,2013-06-26 10:16:00,
2013-06-26 05:21:00,77.4,62.6,29.00,South,176,3.6,6.3,61,0.00,,,0.00,WSDL version 420,2013-06-26 10:21:00,
2013-06-26 05:26:00,77.1,62.7,29.00,SSE,167,1.9,6.0,61,0.00,,,0.00,WSDL version 420,2013-06-26 10:26:00,
2013-06-26 05:31:00,77.0,63.0,29.00,South,186,3.1,6.5,62,0.00,,,0.00,WSDL version 420,2013-06-26 10:31:00,
2013-06-26 05:36:00,76.8,63.3,29.00,SSE,165,4.3,7.2,63,0.00,,,0.00,WSDL version 420,2013-06-26 10:36:00,
2013-06-26 05:41:00,76.8,63.4,29.00,SSW,194,3.9,7.2,64,0.00,,,0.00,WSDL version 420,2013-06-26 10:41:00,
2013-06-26 05:46:00,76.6,63.6,29.00,South,191,3.6,6.0,64,0.00,,,0.00,WSDL version 420,2013-06-26 10:46:00,
2013-06-26 05:51:00,76.6,63.5,29.00,South,180,3.7,6.5,64,0.00,,,0.00,WSDL version 420,2013-06-26 10:51:00,
2013-06-26 05:56:00,76.5,63.4,29.00,South,180,1.0,6.5,64,-99.99,,,-99.99,WSDL version 420,2013-06-26 10:56:00,
2013-06-26 06:01:00,76.5,63.8,29.00,SSW,199,4.1,7.6,65,0.00,,,0.00,WSDL version 420,2013-06-26 11:01:00,
2013-06-26 06:07:00,76.5,63.8,29.00,South,180,3.4,7.6,65,0.00,,,0.00,WSDL version 420,2013-06-26 11:07:00,
2013-06-26 06:12:00,76.3,63.9,29.00,South,189,3.3,6.5,66,0.00,,,0.00,WSDL version 420,2013-06-26 11:12:00,
2013-06-26 06:17:00,76.3,63.9,29.00,SSW,199,2.4,6.5,66,0.00,,,0.00,WSDL version 420,2013-06-26 11:17:00,
2013-06-26 06:22:00,76.3,64.1,29.00,South,183,5.0,10.1,66,0.00,,,0.00,WSDL version 420,2013-06-26 11:22:00,
2013-06-26 06:27:00,76.3,64.1,29.00,South,180,5.3,10.1,66,0.00,,,0.00,WSDL version 420,2013-06-26 11:27:00,
2013-06-26 06:33:00,76.5,64.3,29.03,South,185,7.9,12.3,66,0.00,,,0.00,WSDL version 420,2013-06-26 11:33:00,
2013-06-26 06:39:00,76.6,64.4,29.03,South,191,4.7,12.3,66,0.00,,,0.00,WSDL version 420,2013-06-26 11:39:00,
2013-06-26 06:44:00,76.6,64.4,29.03,SSW,199,4.4,8.7,66,0.00,,,0.00,WSDL version 420,2013-06-26 11:44:00,
2013-06-26 06:49:00,76.7,64.5,29.03,SW,225,5.8,11.0,66,0.00,,,0.00,WSDL version 420,2013-06-26 11:49:00,
2013-06-26 06:54:00,76.9,64.5,29.03,South,186,5.7,11.0,65,0.00,,,0.00,WSDL version 420,2013-06-26 11:54:00,
2013-06-26 06:58:00,77.1,64.5,29.03,SSW,199,4.8,11.0,65,0.00,,,0.00,WSDL version 420,2013-06-26 11:58:00,
2013-06-26 07:03:00,77.2,64.5,29.03,SW,217,5.0,10.1,65,0.00,,,0.00,WSDL version 420,2013-06-26 12:03:00,
2013-06-26 07:08:00,77.4,64.7,29.03,SSW,206,6.3,11.0,65,0.00,,,0.00,WSDL version 420,2013-06-26 12:08:00,
2013-06-26 07:13:00,77.6,64.9,29.03,SSW,206,5.1,11.0,65,0.00,,,0.00,WSDL version 420,2013-06-26 12:13:00,
2013-06-26 07:18:00,77.9,64.9,29.03,South,180,6.6,10.7,64,0.00,,,0.00,WSDL version 420,2013-06-26 12:18:00,
2013-06-26 07:24:00,78.2,65.0,29.03,SW,218,6.6,13.0,64,-99.99,,,-99.99,WSDL version 420,2013-06-26 12:24:00,
2013-06-26 07:29:00,78.4,65.1,29.03,SSW,199,5.9,13.0,63,0.00,,,0.00,WSDL version 420,2013-06-26 12:29:00,
2013-06-26 07:34:00,78.7,64.9,29.03,SW,216,5.5,11.2,62,0.00,,,0.00,WSDL version 420,2013-06-26 12:34:00,
2013-06-26 07:39:00,78.9,64.8,29.03,South,180,6.4,9.6,62,0.00,,,0.00,WSDL version 420,2013-06-26 12:39:00,
2013-06-26 07:44:00,79.2,65.1,29.03,SSW,210,6.5,12.5,62,0.00,,,0.00,WSDL version 420,2013-06-26 12:44:00,
2013-06-26 07:49:00,79.5,64.9,29.03,SSW,195,5.3,12.5,61,0.00,,,0.00,WSDL version 420,2013-06-26 12:49:00,
2013-06-26 07:55:00,79.8,64.9,29.03,SW,222,7.8,15.2,60,0.00,,,0.00,WSDL version 420,2013-06-26 12:55:00,
2013-06-26 08:00:00,79.9,64.8,29.03,SSW,206,6.9,15.2,60,0.00,,,0.00,WSDL version 420,2013-06-26 13:00:00,
2013-06-26 08:05:00,80.2,65.0,29.03,SSW,212,6.9,11.0,60,0.00,,,0.00,WSDL version 420,2013-06-26 13:05:00,
2013-06-26 08:11:00,80.6,64.6,29.03,SSW,212,6.9,14.3,58,0.00,,,0.00,WSDL version 420,2013-06-26 13:11:00,
2013-06-26 08:16:00,80.8,64.6,29.03,SSW,203,7.5,14.3,58,0.00,,,0.00,WSDL version 420,2013-06-26 13:16:00,
2013-06-26 08:21:00,81.3,64.7,29.03,SSW,199,6.4,14.3,57,0.00,,,0.00,WSDL version 420,2013-06-26 13:21:00,
2013-06-26 08:26:00,81.6,64.5,29.03,South,190,6.5,14.3,56,0.00,,,0.00,WSDL version 420,2013-06-26 13:26:00,
2013-06-26 08:31:00,81.9,64.4,29.03,SSW,207,7.6,16.6,55,-99.99,,,-99.99,WSDL version 420,2013-06-26 13:31:00,
2013-06-26 08:36:00,82.3,64.0,29.03,WSW,242,7.1,16.6,54,0.00,,,0.00,WSDL version 420,2013-06-26 13:36:00,
2013-06-26 08:41:00,82.6,63.7,29.03,SSW,206,8.1,15.2,53,0.00,,,0.00,WSDL version 420,2013-06-26 13:41:00,
2013-06-26 08:46:00,82.9,63.8,29.03,SW,230,7.5,15.2,52,0.00,,,0.00,WSDL version 420,2013-06-26 13:46:00,
2013-06-26 08:52:00,83.2,63.8,29.03,SSW,212,6.7,14.5,52,0.00,,,0.00,WSDL version 420,2013-06-26 13:52:00,
2013-06-26 08:57:00,83.9,63.7,29.03,SSW,212,5.7,14.5,50,0.00,,,0.00,WSDL version 420,2013-06-26 13:57:00,
2013-06-26 09:02:00,84.2,63.0,29.03,SW,218,8.1,12.8,49,0.00,,,0.00,WSDL version 420,2013-06-26 14:02:00,
2013-06-26 09:07:00,84.2,62.4,29.03,South,191,7.7,14.5,48,0.00,,,0.00,WSDL version 420,2013-06-26 14:07:00,
2013-06-26 09:12:00,84.7,62.4,29.03,SW,215,9.3,13.4,47,0.00,,,0.00,WSDL version 420,2013-06-26 14:12:00,
2013-06-26 09:17:00,84.6,62.0,29.03,SSW,203,9.5,17.4,47,0.00,,,0.00,WSDL version 420,2013-06-26 14:17:00,
2013-06-26 09:24:00,85.1,62.3,29.06,SSW,206,7.6,17.4,47,0.00,,,0.00,WSDL version 420,2013-06-26 14:24:00,
2013-06-26 09:29:00,86.0,62.5,29.06,South,176,8.4,13.2,45,0.00,,,0.00,WSDL version 420,2013-06-26 14:29:00,
2013-06-26 09:34:00,86.4,62.2,29.06,SSW,212,7.1,13.9,44,-99.99,,,-99.99,WSDL version 420,2013-06-26 14:34:00,
2013-06-26 09:41:00,87.2,62.6,29.06,South,177,5.7,13.9,44,0.00,,,0.00,WSDL version 420,2013-06-26 14:41:00,
2013-06-26 09:46:00,87.2,62.0,29.06,SW,218,8.5,13.6,43,0.00,,,0.00,WSDL version 420,2013-06-26 14:46:00,
2013-06-26 09:51:00,87.4,61.5,29.06,SSW,197,8.3,13.6,42,0.00,,,0.00,WSDL version 420,2013-06-26 14:51:00,
2013-06-26 09:56:00,87.6,61.4,29.06,SW,221,8.1,17.7,41,0.00,,,0.00,WSDL version 420,2013-06-26 14:56:00,
2013-06-26 10:01:00,87.9,61.3,29.06,SSW,199,6.5,17.7,41,0.00,,,0.00,WSDL version 420,2013-06-26 15:01:00,
2013-06-26 10:07:00,88.8,62.1,29.06,South,189,6.6,13.6,41,0.00,,,0.00,WSDL version 420,2013-06-26 15:07:00,
2013-06-26 10:12:00,89.1,61.4,29.06,SW,214,7.7,13.6,39,0.00,,,0.00,WSDL version 420,2013-06-26 15:12:00,
2013-06-26 10:17:00,89.2,61.3,29.06,SW,219,7.5,13.6,39,0.00,,,0.00,WSDL version 420,2013-06-26 15:17:00,
2013-06-26 10:22:00,90.0,61.7,29.06,SW,221,6.3,10.7,39,0.00,,,0.00,WSDL version 420,2013-06-26 15:22:00,
2013-06-26 10:27:00,89.9,61.1,29.06,SSW,206,8.3,12.3,38,0.00,,,0.00,WSDL version 420,2013-06-26 15:27:00,
2013-06-26 10:32:00,90.1,61.1,29.06,South,176,7.2,13.4,38,0.00,,,0.00,WSDL version 420,2013-06-26 15:32:00,
2013-06-26 10:37:00,90.2,61.4,29.06,South,174,6.5,13.4,38,0.00,,,0.00,WSDL version 420,2013-06-26 15:37:00,
2013-06-26 10:42:00,90.6,61.2,29.06,SW,225,6.6,13.4,37,0.00,,,0.00,WSDL version 420,2013-06-26 15:42:00,
2013-06-26 10:47:00,91.1,61.7,29.06,SW,218,3.8,13.4,38,0.00,,,0.00,WSDL version 420,2013-06-26 15:47:00,
2013-06-26 10:52:00,91.6,60.6,29.06,South,191,7.9,13.2,36,-99.99,,,-99.99,WSDL version 420,2013-06-26 15:52:00,
2013-06-26 10:57:00,91.8,60.9,29.06,SSW,208,6.5,13.2,36,0.00,,,0.00,WSDL version 420,2013-06-26 15:57:00,
2013-06-26 11:03:00,92.7,60.6,29.06,SW,225,6.0,10.5,35,0.00,,,0.00,WSDL version 420,2013-06-26 16:03:00,
2013-06-26 11:08:00,93.2,61.1,29.06,SW,219,6.8,12.5,34,0.00,,,0.00,WSDL version 420,2013-06-26 16:08:00,
2013-06-26 11:13:00,93.6,60.4,29.06,South,180,6.8,12.5,33,0.00,,,0.00,WSDL version 420,2013-06-26 16:13:00,
2013-06-26 11:18:00,93.9,59.8,29.06,SSW,199,7.9,12.3,32,0.00,,,0.00,WSDL version 420,2013-06-26 16:18:00,
2013-06-26 11:23:00,93.9,59.6,29.06,SSW,196,5.6,12.3,32,0.00,,,0.00,WSDL version 420,2013-06-26 16:23:00,
2013-06-26 11:28:00,93.9,59.6,29.06,SW,219,6.4,12.3,32,0.00,,,0.00,WSDL version 420,2013-06-26 16:28:00,
2013-06-26 11:33:00,93.8,59.5,29.06,SSE,149,5.6,12.3,32,0.00,,,0.00,WSDL version 420,2013-06-26 16:33:00,
2013-06-26 11:38:00,93.4,59.2,29.06,SSE,161,6.6,15.2,32,0.00,,,0.00,WSDL version 420,2013-06-26 16:38:00,
2013-06-26 11:43:00,93.6,59.3,29.06,South,176,6.5,15.2,32,0.00,,,0.00,WSDL version 420,2013-06-26 16:43:00,
2013-06-26 11:48:00,93.9,59.6,29.06,South,169,6.0,10.5,32,0.00,,,0.00,WSDL version 420,2013-06-26 16:48:00,
2013-06-26 11:56:00,95.5,59.2,29.06,South,190,6.1,9.4,30,0.00,,,0.00,WSDL version 420,2013-06-26 16:56:00,
2013-06-26 12:01:00,95.9,59.3,29.06,SSW,194,6.9,13.0,30,0.00,,,0.00,WSDL version 420,2013-06-26 17:01:00,
2013-06-26 12:06:00,95.6,58.8,29.09,SW,225,7.2,13.0,30,0.00,,,0.00,WSDL version 420,2013-06-26 17:06:00,
2013-06-26 12:11:00,95.9,59.0,29.09,SSE,158,6.8,13.2,29,0.00,,,0.00,WSDL version 420,2013-06-26 17:11:00,
2013-06-26 12:16:00,96.4,59.1,29.09,SSW,203,7.6,13.2,30,0.00,,,0.00,WSDL version 420,2013-06-26 17:16:00,
2013-06-26 12:21:00,96.8,59.3,29.06,South,183,7.3,12.8,29,0.00,,,0.00,WSDL version 420,2013-06-26 17:21:00,
2013-06-26 12:26:00,96.7,59.2,29.06,SW,222,6.7,12.3,29,0.00,,,0.00,WSDL version 420,2013-06-26 17:26:00,
2013-06-26 12:31:00,96.7,58.2,29.06,South,180,6.7,12.1,28,0.00,,,0.00,WSDL version 420,2013-06-26 17:31:00,
2013-06-26 12:36:00,97.3,58.8,29.06,South,184,6.4,12.1,28,0.00,,,0.00,WSDL version 420,2013-06-26 17:36:00,
2013-06-26 12:41:00,97.5,58.9,29.06,SSW,208,7.8,12.8,28,0.00,,,0.00,WSDL version 420,2013-06-26 17:41:00,
2013-06-26 12:46:00,98.1,59.4,29.06,SSE,163,5.8,12.8,28,0.00,,,0.00,WSDL version 420,2013-06-26 17:46:00,
2013-06-26 12:51:00,98.5,59.0,29.06,SSW,210,4.1,11.0,27,0.00,,,0.00,WSDL version 420,2013-06-26 17:51:00,
2013-06-26 12:56:00,98.5,58.8,29.06,South,191,5.5,12.5,27,0.00,,,0.00,WSDL version 420,2013-06-26 17:56:00,
2013-06-26 13:01:00,99.0,59.2,29.06,SW,225,8.3,12.5,27,0.00,,,0.00,WSDL version 420,2013-06-26 18:01:00,
2013-06-26 13:06:00,98.4,58.7,29.06,South,169,6.3,11.0,27,-99.99,,,-99.99,WSDL version 420,2013-06-26 18:06:00,
2013-06-26 13:11:00,98.8,59.0,29.06,SSW,199,7.2,15.2,27,0.00,,,0.00,WSDL version 420,2013-06-26 18:11:00,
2013-06-26 13:16:00,98.8,59.1,29.06,South,172,7.3,15.2,27,0.00,,,0.00,WSDL version 420,2013-06-26 18:16:00,
2013-06-26 13:21:00,99.0,59.2,29.03,SSE,158,5.5,10.5,27,0.00,,,0.00,WSDL version 420,2013-06-26 18:21:00,
2013-06-26 13:26:00,98.8,58.0,29.03,SSE,154,7.3,9.8,26,-99.99,,,-99.99,WSDL version 420,2013-06-26 18:26:00,
2013-06-26 13:31:00,99.1,59.0,29.03,SSE,167,6.4,11.0,27,0.00,,,0.00,WSDL version 420,2013-06-26 18:31:00,
2013-06-26 13:37:00,99.5,58.6,29.03,South,186,7.3,11.0,26,0.00,,,0.00,WSDL version 420,2013-06-26 18:37:00,
2013-06-26 13:42:00,99.9,59.3,29.03,SW,225,6.2,12.1,26,0.00,,,0.00,WSDL version 420,2013-06-26 18:42:00,
2013-06-26 13:48:00,99.7,58.8,29.03,SW,215,4.1,15.4,26,0.00,,,0.00,WSDL version 420,2013-06-26 18:48:00,
2013-06-26 13:53:00,100.2,58.8,29.03,SW,234,6.9,15.4,26,0.00,,,0.00,WSDL version 420,2013-06-26 18:53:00,
2013-06-26 13:58:00,100.5,58.3,29.03,SSE,153,6.2,14.5,25,0.00,,,0.00,WSDL version 420,2013-06-26 18:58:00,
2013-06-26 14:03:00,100.0,59.0,29.03,SSE,148,7.2,14.8,26,0.00,,,0.00,WSDL version 420,2013-06-26 19:03:00,
2013-06-26 14:08:00,100.2,59.2,29.06,SSE,167,7.9,14.8,26,0.00,,,0.00,WSDL version 420,2013-06-26 19:08:00,
2013-06-26 14:13:00,100.7,58.5,29.06,South,177,5.2,12.8,25,0.00,,,0.00,WSDL version 420,2013-06-26 19:13:00,
2013-06-26 14:18:00,101.5,59.2,29.06,South,183,4.9,9.4,25,0.00,,,0.00,WSDL version 420,2013-06-26 19:18:00,
2013-06-26 14:24:00,101.5,59.1,29.03,SE,146,5.8,12.8,25,0.00,,,0.00,WSDL version 420,2013-06-26 19:24:00,
2013-06-26 14:29:00,101.8,59.4,29.03,SSW,198,5.7,12.8,25,0.00,,,0.00,WSDL version 420,2013-06-26 19:29:00,
2013-06-26 14:34:00,101.9,58.9,29.03,SSE,151,5.0,13.0,24,0.00,,,0.00,WSDL version 420,2013-06-26 19:34:00,
2013-06-26 14:39:00,102.1,59.1,29.03,SSW,200,5.7,13.0,25,0.00,,,0.00,WSDL version 420,2013-06-26 19:39:00,
2013-06-26 14:44:00,102.2,58.9,29.03,SW,218,6.6,10.3,24,0.00,,,0.00,WSDL version 420,2013-06-26 19:44:00,
2013-06-26 14:49:00,101.8,59.4,29.03,SSW,193,5.8,12.8,25,0.00,,,0.00,WSDL version 420,2013-06-26 19:49:00,
2013-06-26 14:54:00,101.7,59.3,29.03,South,174,6.4,15.2,25,0.00,,,0.00,WSDL version 420,2013-06-26 19:54:00,
2013-06-26 14:59:00,102.1,59.6,29.03,SSW,206,6.0,15.2,25,0.00,,,0.00,WSDL version 420,2013-06-26 19:59:00,
2013-06-26 15:04:00,102.3,59.5,29.00,SW,236,5.9,12.8,24,-99.99,,,-99.99,WSDL version 420,2013-06-26 20:04:00,
2013-06-26 15:09:00,103.2,59.4,29.00,SSW,199,4.2,10.3,23,0.00,,,0.00,WSDL version 420,2013-06-26 20:09:00,
2013-06-26 15:15:00,103.1,58.1,29.00,South,177,7.1,11.9,23,0.00,,,0.00,WSDL version 420,2013-06-26 20:15:00,
2013-06-26 15:20:00,102.3,57.5,29.03,South,180,4.5,10.3,23,0.00,,,0.00,WSDL version 420,2013-06-26 20:20:00,
2013-06-26 15:25:00,102.5,58.1,29.03,South,180,7.2,13.0,24,0.00,,,0.00,WSDL version 420,2013-06-26 20:25:00,
2013-06-26 15:30:00,102.3,58.1,29.03,SSW,193,7.7,13.0,23,0.00,,,0.00,WSDL version 420,2013-06-26 20:30:00,
2013-06-26 15:35:00,101.9,58.3,29.00,SSW,205,9.2,14.3,24,0.00,,,0.00,WSDL version 420,2013-06-26 20:35:00,
2013-06-26 15:40:00,101.9,58.8,29.00,South,180,7.9,14.3,25,0.00,,,0.00,WSDL version 420,2013-06-26 20:40:00,
2013-06-26 15:45:00,102.1,58.9,29.00,SSW,199,7.1,10.7,24,0.00,,,0.00,WSDL version 420,2013-06-26 20:45:00,
2013-06-26 15:50:00,102.3,58.7,29.00,SSW,207,6.3,10.3,24,0.00,,,0.00,WSDL version 420,2013-06-26 20:50:00,
2013-06-26 15:55:00,102.7,57.8,29.00,SW,225,6.3,11.9,22,0.00,,,0.00,WSDL version 420,2013-06-26 20:55:00,
2013-06-26 16:00:00,103.1,56.9,29.00,SSW,195,5.7,11.9,22,0.00,,,0.00,WSDL version 420,2013-06-26 21:00:00,
2013-06-26 16:06:00,102.7,57.4,29.00,SW,225,5.6,12.3,23,0.00,,,0.00,WSDL version 420,2013-06-26 21:06:00,
2013-06-26 16:11:00,103.5,57.7,29.00,SE,145,6.6,12.3,22,-99.99,,,-99.99,WSDL version 420,2013-06-26 21:11:00,
2013-06-26 16:16:00,103.0,56.2,29.00,SW,225,7.6,12.8,21,0.00,,,0.00,WSDL version 420,2013-06-26 21:16:00,
2013-06-26 16:24:00,103.1,56.9,28.97,South,191,5.4,11.2,22,0.00,,,0.00,WSDL version 420,2013-06-26 21:24:00,
2013-06-26 16:30:00,102.8,55.4,28.97,SSW,206,8.0,12.8,22,0.00,,,0.00,WSDL version 420,2013-06-26 21:30:00,
2013-06-26 16:35:00,102.8,55.7,29.00,SSE,154,5.3,12.8,21,0.00,,,0.00,WSDL version 420,2013-06-26 21:35:00,
2013-06-26 16:40:00,103.0,55.1,29.00,SSE,164,6.7,10.1,20,0.00,,,0.00,WSDL version 420,2013-06-26 21:40:00,
2013-06-26 16:45:00,103.3,55.1,29.00,SSW,198,4.6,10.1,21,0.00,,,0.00,WSDL version 420,2013-06-26 21:45:00,
2013-06-26 16:50:00,103.8,55.9,28.97,SSE,158,5.2,10.5,20,0.00,,,0.00,WSDL version 420,2013-06-26 21:50:00,
2013-06-26 16:55:00,103.7,54.3,28.97,South,191,7.3,12.3,19,0.00,,,0.00,WSDL version 420,2013-06-26 21:55:00,
2013-06-26 17:00:00,103.4,54.9,28.97,South,180,4.7,12.3,20,0.00,,,0.00,WSDL version 420,2013-06-26 22:00:00,
2013-06-26 17:05:00,103.8,54.4,28.97,South,170,6.3,12.5,20,0.00,,,0.00,WSDL version 420,2013-06-26 22:05:00,
2013-06-26 17:12:00,103.9,54.3,28.97,South,169,6.4,12.5,19,0.00,,,0.00,WSDL version 420,2013-06-26 22:12:00,
2013-06-26 17:17:00,103.5,53.2,28.97,SW,222,6.6,15.2,19,0.00,,,0.00,WSDL version 420,2013-06-26 22:17:00,
2013-06-26 17:22:00,103.7,53.4,28.97,South,190,5.4,15.2,19,0.00,,,0.00,WSDL version 420,2013-06-26 22:22:00,
2013-06-26 17:27:00,103.6,53.3,28.97,SE,144,5.8,10.5,19,0.00,,,0.00,WSDL version 420,2013-06-26 22:27:00,
2013-06-26 17:32:00,103.7,52.3,28.97,SSW,203,6.2,12.3,18,0.00,,,0.00,WSDL version 420,2013-06-26 22:32:00,
2013-06-26 17:37:00,104.1,51.7,28.97,SSW,203,2.6,12.3,18,0.00,,,0.00,WSDL version 420,2013-06-26 22:37:00,
2013-06-26 17:42:00,104.5,51.5,28.97,SW,218,4.7,7.6,17,0.00,,,0.00,WSDL version 420,2013-06-26 22:42:00,
2013-06-26 17:47:00,104.2,50.8,28.97,South,174,7.8,12.1,17,-99.99,,,-99.99,WSDL version 420,2013-06-26 22:47:00,
2013-06-26 17:54:00,103.7,50.4,28.97,SSW,210,6.6,12.1,17,-99.99,,,-99.99,WSDL version 420,2013-06-26 22:54:00,
2013-06-26 18:00:00,103.6,50.3,28.97,SSW,210,4.0,11.0,17,0.00,,,0.00,WSDL version 420,2013-06-26 23:00:00,
2013-06-26 18:08:00,103.5,51.0,28.97,SSE,154,6.5,9.4,18,0.00,,,0.00,WSDL version 420,2013-06-26 23:08:00,
2013-06-26 18:14:00,103.7,50.4,28.97,South,180,5.7,11.0,17,0.00,,,0.00,WSDL version 420,2013-06-26 23:14:00,
2013-06-26 18:19:00,103.7,50.7,28.97,South,183,3.3,11.0,18,0.00,,,0.00,WSDL version 420,2013-06-26 23:19:00,
2013-06-26 18:24:00,103.7,50.4,28.97,SSW,203,4.5,9.6,17,0.00,,,0.00,WSDL version 420,2013-06-26 23:24:00,
2013-06-26 18:29:00,103.8,50.1,28.97,SSE,154,4.2,8.5,17,0.00,,,0.00,WSDL version 420,2013-06-26 23:29:00,
2013-06-26 18:35:00,103.5,50.2,28.97,SSE,158,4.1,13.0,17,0.00,,,0.00,WSDL version 420,2013-06-26 23:35:00,
2013-06-26 18:40:00,103.4,50.1,28.97,South,185,5.2,13.0,17,0.00,,,0.00,WSDL version 420,2013-06-26 23:40:00,
2013-06-26 18:45:00,102.8,49.6,28.97,SSE,151,5.0,13.0,17,0.00,,,0.00,WSDL version 420,2013-06-26 23:45:00,
2013-06-26 18:50:00,102.3,49.3,28.97,SSE,158,5.5,13.0,17,-99.99,,,-99.99,WSDL version 420,2013-06-26 23:50:00,
2013-06-26 18:55:00,102.1,49.4,28.97,South,169,5.7,10.5,17,0.00,,,0.00,WSDL version 420,2013-06-26 23:55:00,
2013-06-26 19:00:00,101.8,49.6,28.97,South,173,6.6,11.2,18,0.00,,,0.00,WSDL version 420,2013-06-27 00:00:00,
2013-06-26 19:05:00,101.4,49.6,28.97,SSE,151,7.6,13.0,18,0.00,,,0.00,WSDL version 420,2013-06-27 00:05:00,
2013-06-26 19:10:00,101.0,49.8,28.97,South,171,7.0,13.0,18,0.00,,,0.00,WSDL version 420,2013-06-27 00:10:00,
2013-06-26 19:16:00,100.8,49.5,28.97,SSE,164,5.1,12.5,18,0.00,,,0.00,WSDL version 420,2013-06-27 00:16:00,
2013-06-26 19:21:00,100.8,49.5,28.94,SSE,167,4.0,8.1,18,0.00,,,0.00,WSDL version 420,2013-06-27 00:21:00,
2013-06-26 19:26:00,100.6,49.4,28.94,SSE,158,5.8,11.0,18,0.00,,,0.00,WSDL version 420,2013-06-27 00:26:00,
2013-06-26 19:32:00,100.1,49.8,28.94,South,174,5.3,11.0,19,0.00,,,0.00,WSDL version 420,2013-06-27 00:32:00,
2013-06-26 19:38:00,99.8,50.2,28.97,SSE,165,3.7,10.7,19,0.00,,,0.00,WSDL version 420,2013-06-27 00:38:00,
2013-06-26 19:43:00,99.6,50.1,28.97,South,176,6.3,8.1,19,0.00,,,0.00,WSDL version 420,2013-06-27 00:43:00,
2013-06-26 19:48:00,99.1,51.0,28.97,SSE,162,4.1,8.1,20,0.00,,,0.00,WSDL version 420,2013-06-27 00:48:00,
2013-06-26 19:53:00,99.0,50.9,28.97,SSE,158,6.6,10.3,20,0.00,,,0.00,WSDL version 420,2013-06-27 00:53:00,
2013-06-26 19:58:00,98.4,51.8,28.97,SSE,164,6.0,10.3,21,0.00,,,0.00,WSDL version 420,2013-06-27 00:58:00,
2013-06-26 20:07:00,97.5,52.3,28.97,South,171,3.4,12.3,22,0.00,,,0.00,WSDL version 420,2013-06-27 01:07:00,
2013-06-26 20:13:00,97.0,53.1,28.97,SSE,158,4.5,6.5,23,0.00,,,0.00,WSDL version 420,2013-06-27 01:13:00,
2013-06-26 20:18:00,96.6,53.9,28.97,South,173,3.4,7.2,24,0.00,,,0.00,WSDL version 420,2013-06-27 01:18:00,
2013-06-26 20:25:00,95.8,54.4,28.97,South,171,4.1,8.1,25,0.00,,,0.00,WSDL version 420,2013-06-27 01:25:00,
2013-06-26 20:30:00,95.4,55.1,28.97,South,176,4.4,7.4,26,0.00,,,0.00,WSDL version 420,2013-06-27 01:30:00,
2013-06-26 20:36:00,94.6,55.5,28.97,SSW,203,4.4,10.1,27,0.00,,,0.00,WSDL version 420,2013-06-27 01:36:00,
2013-06-26 20:41:00,94.3,55.2,28.97,SSE,158,4.3,10.1,27,0.00,,,0.00,WSDL version 420,2013-06-27 01:41:00,
2013-06-26 20:46:00,93.8,55.0,28.97,SSW,203,3.1,12.8,28,0.00,,,0.00,WSDL version 420,2013-06-27 01:46:00,
2013-06-26 20:51:00,93.4,55.4,28.97,SSE,167,4.4,12.8,28,0.00,,,0.00,WSDL version 420,2013-06-27 01:51:00,
2013-06-26 20:56:00,93.1,55.2,28.97,SSE,158,2.5,6.5,28,0.00,,,0.00,WSDL version 420,2013-06-27 01:56:00,
2013-06-26 21:01:00,92.7,55.5,28.97,South,169,2.9,6.5,29,0.00,,,0.00,WSDL version 420,2013-06-27 02:01:00,
2013-06-26 21:06:00,92.4,55.6,28.97,SW,225,3.8,9.8,29,0.00,,,0.00,WSDL version 420,2013-06-27 02:06:00,
2013-06-26 21:11:00,92.2,55.4,28.97,South,169,4.3,9.8,29,0.00,,,0.00,WSDL version 420,2013-06-27 02:11:00,
2013-06-26 21:16:00,91.9,55.1,28.97,SSE,158,3.4,8.9,29,0.00,,,0.00,WSDL version 420,2013-06-27 02:16:00,
2013-06-26 21:21:00,91.5,54.8,28.94,South,174,3.0,5.6,29,0.00,,,0.00,WSDL version 420,2013-06-27 02:21:00,
2013-06-26 21:26:00,91.3,55.4,28.94,SSE,166,2.0,5.6,30,0.00,,,0.00,WSDL version 420,2013-06-27 02:26:00,
2013-06-26 21:32:00,91.0,55.3,28.94,SE,140,3.6,7.4,30,0.00,,,0.00,WSDL version 420,2013-06-27 02:32:00,
2013-06-26 21:37:00,90.8,55.1,28.94,SSE,154,3.4,7.4,30,0.00,,,0.00,WSDL version 420,2013-06-27 02:37:00,
2013-06-26 21:42:00,90.5,54.9,28.94,SSE,162,3.1,6.3,30,0.00,,,0.00,WSDL version 420,2013-06-27 02:42:00,
2013-06-26 21:47:00,90.1,55.0,28.94,SSE,149,3.4,6.3,31,0.00,,,0.00,WSDL version 420,2013-06-27 02:47:00,
2013-06-26 21:52:00,90.0,55.1,28.97,South,173,1.0,6.3,31,0.00,,,0.00,WSDL version 420,2013-06-27 02:52:00,
2013-06-26 21:57:00,89.7,55.1,28.97,SSE,148,2.5,6.3,31,0.00,,,0.00,WSDL version 420,2013-06-27 02:57:00,
2013-06-26 22:03:00,89.4,55.4,28.97,SSE,161,1.9,6.3,32,0.00,,,0.00,WSDL version 420,2013-06-27 03:03:00,
2013-06-26 22:08:00,89.1,55.4,29.00,SSE,150,3.2,5.4,32,0.00,,,0.00,WSDL version 420,2013-06-27 03:08:00,
2013-06-26 22:13:00,88.9,55.2,29.00,South,186,3.3,4.7,32,-99.99,,,-99.99,WSDL version 420,2013-06-27 03:13:00,
2013-06-26 22:18:00,88.8,55.1,29.00,SSE,165,1.2,6.5,32,0.00,,,0.00,WSDL version 420,2013-06-27 03:18:00,
2013-06-26 22:23:00,88.4,54.9,29.00,SSE,158,1.7,6.5,32,0.00,,,0.00,WSDL version 420,2013-06-27 03:23:00,
2013-06-26 22:28:00,88.2,54.7,29.00,SSE,162,1.2,4.0,32,0.00,,,0.00,WSDL version 420,2013-06-27 03:28:00,
2013-06-26 22:34:00,87.8,54.3,29.00,SSE,161,1.6,3.8,32,0.00,,,0.00,WSDL version 420,2013-06-27 03:34:00,
2013-06-26 22:39:00,87.6,55.0,29.00,SSE,167,1.2,3.8,33,0.00,,,0.00,WSDL version 420,2013-06-27 03:39:00,
2013-06-26 22:44:00,87.6,55.0,29.00,SSE,158,1.9,4.0,33,0.00,,,0.00,WSDL version 420,2013-06-27 03:44:00,
2013-06-26 22:49:00,87.5,54.9,29.03,SSE,163,0.3,4.0,33,0.00,,,0.00,WSDL version 420,2013-06-27 03:49:00,
2013-06-26 22:54:00,87.3,54.7,29.03,South,174,1.2,4.9,33,0.00,,,0.00,WSDL version 420,2013-06-27 03:54:00,
2013-06-26 22:59:00,87.2,54.6,29.03,South,177,2.2,4.9,33,0.00,,,0.00,WSDL version 420,2013-06-27 03:59:00,
2013-06-26 23:01:00,87.1,54.5,29.03,South,186,1.4,4.7,33,0.00,,,0.00,WSDL version 420,2013-06-27 04:01:00,
2013-06-26 23:02:00,87.1,54.5,29.03,South,185,1.4,4.7,33,0.00,,,0.00,WSDL version 420,2013-06-27 04:02:00,
2013-06-26 23:03:00,87.0,54.5,29.03,SSW,194,0.9,4.7,33,0.00,,,0.00,WSDL version 420,2013-06-27 04:03:00,
2013-06-26 23:08:00,86.8,54.3,29.03,South,180,1.1,2.7,33,0.00,,,0.00,WSDL version 420,2013-06-27 04:08:00,
2013-06-26 23:14:00,86.6,54.1,29.03,South,188,0.0,2.7,33,0.00,,,0.00,WSDL version 420,2013-06-27 04:14:00,
2013-06-26 23:18:00,86.4,54.7,29.03,South,180,0.0,0.0,34,0.00,,,0.00,WSDL version 420,2013-06-27 04:18:00,
2013-06-26 23:24:00,86.1,54.9,29.03,South,169,0.2,3.6,35,0.00,,,0.00,WSDL version 420,2013-06-27 04:24:00,
2013-06-26 23:27:00,86.1,55.3,29.03,South,174,1.5,3.6,35,0.00,,,0.00,WSDL version 420,2013-06-27 04:27:00,
2013-06-26 23:32:00,86.1,55.2,29.03,South,169,0.5,3.6,35,0.00,,,0.00,WSDL version 420,2013-06-27 04:32:00,
2013-06-26 23:37:00,85.9,55.5,29.03,South,180,1.7,3.4,36,0.00,,,0.00,WSDL version 420,2013-06-27 04:37:00,
2013-06-26 23:42:00,85.6,55.7,29.03,South,191,1.8,3.4,36,0.00,,,0.00,WSDL version 420,2013-06-27 04:42:00,
2013-06-26 23:47:00,85.6,55.7,29.03,South,189,0.4,3.1,36,0.00,,,0.00,WSDL version 420,2013-06-27 04:47:00,
2013-06-26 23:53:00,85.4,55.4,29.03,South,177,1.2,3.1,36,0.00,,,0.00,WSDL version 420,2013-06-27 04:53:00,
2013-06-26 23:58:00,85.2,55.3,29.03,SSE,158,0.9,4.0,36,0.00,,,0.00,WSDL version 420,2013-06-27 04:58:00,